• In Hungary
  • List of Countries
  • For 7 days
  • Water Temperature
  • Satellite Maps
  • Weather Map
  • News
  • Weather Widgets
  • user-avatar
    Login

    Hourly Weather Satif

    Today, 21 November, Tuesday

    Time Temperature Precipitation Wind Pressure Humidity
    00:00 +8°C° 0 mm 1 mps 675 mmHg 42%
    01:00 +8°C° 0 mm 1 mps 675 mmHg 43%
    02:00 +8°C° 0 mm 1 mps 675 mmHg 44%
    03:00 +7°C° 0 mm 1 mps 674 mmHg 45%
    04:00 +7°C° 0 mm 1 mps 674 mmHg 45%
    05:00 +7°C° 0 mm 1 mps 674 mmHg 46%
    06:00 +6°C° 0 mm 1 mps 674 mmHg 46%
    07:00 +8°C° 0 mm 1 mps 675 mmHg 42%
    08:00 +10°C° 0 mm 1 mps 676 mmHg 37%
    09:00 +12°C° 0 mm 1 mps 676 mmHg 33%
    10:00 +13°C° 0 mm 1 mps 676 mmHg 30%
    11:00 +15°C° 0 mm 1 mps 676 mmHg 28%
    12:00 +16°C° 0 mm 1 mps 677 mmHg 25%
    13:00 +16°C° 0 mm 2 mps 676 mmHg 26%
    14:00 +16°C° 0 mm 2 mps 676 mmHg 27%
    15:00 +16°C° 0 mm 2 mps 676 mmHg 28%
    16:00 +14°C° 0 mm 1 mps 675 mmHg 33%
    17:00 +12°C° 0 mm 1 mps 675 mmHg 39%
    18:00 +10°C° 0 mm 1 mps 674 mmHg 45%
    19:00 +10°C° 0 mm 1 mps 674 mmHg 44%
    20:00 +10°C° 0 mm 1 mps 674 mmHg 44%
    21:00 +9°C° 0 mm 1 mps 674 mmHg 44%
    22:00 +9°C° 0 mm 1 mps 674 mmHg 42%
    23:00 +9°C° 0 mm 1 mps 674 mmHg 41%

    Tomorrow, 22 November, Wednesday

    Time Temperature Precipitation Wind Pressure Humidity
    00:00 +8°C° 0 mm 2 mps 674 mmHg 40%
    01:00 +7°C° 0 mm 2 mps 673 mmHg 40%
    02:00 +7°C° 0 mm 2 mps 673 mmHg 41%
    03:00 +7°C° 0 mm 2 mps 673 mmHg 41%
    04:00 +6°C° 0 mm 2 mps 672 mmHg 41%
    05:00 +6°C° 0 mm 2 mps 672 mmHg 42%
    06:00 +6°C° 0 mm 2 mps 672 mmHg 42%
    07:00 +8°C° 0 mm 2 mps 673 mmHg 39%
    08:00 +9°C° 0 mm 2 mps 673 mmHg 36%
    09:00 +12°C° 0 mm 2 mps 674 mmHg 33%
    10:00 +13°C° 0 mm 2 mps 674 mmHg 30%
    11:00 +14°C° 0 mm 2 mps 674 mmHg 26%
    12:00 +14°C° 0 mm 3 mps 674 mmHg 22%
    13:00 +14°C° 0 mm 3 mps 674 mmHg 23%
    14:00 +15°C° 0 mm 2 mps 673 mmHg 25%
    15:00 +15°C° 0 mm 2 mps 673 mmHg 27%
    16:00 +14°C° 0 mm 2 mps 673 mmHg 29%
    17:00 +12°C° 0 mm 2 mps 673 mmHg 30%
    18:00 +10°C° 0 mm 2 mps 672 mmHg 32%
    19:00 +10°C° 0 mm 2 mps 672 mmHg 34%
    20:00 +9°C° 0 mm 2 mps 672 mmHg 35%
    21:00 +9°C° 0 mm 2 mps 672 mmHg 36%
    22:00 +8°C° 0 mm 2 mps 672 mmHg 37%
    23:00 +8°C° 0 mm 2 mps 672 mmHg 38%

    Day after tomorrow, 23 November, Thursday

    Time Temperature Precipitation Wind Pressure Humidity
    00:00 +8°C° 0 mm 2 mps 672 mmHg 39%
    01:00 +8°C° 0 mm 2 mps 672 mmHg 40%
    02:00 +7°C° 0 mm 2 mps 672 mmHg 40%
    03:00 +7°C° 0 mm 2 mps 672 mmHg 41%
    04:00 +7°C° 0 mm 2 mps 672 mmHg 42%
    05:00 +8°C° 0 mm 1 mps 672 mmHg 42%
    06:00 +8°C° 0 mm 1 mps 672 mmHg 43%
    07:00 +9°C° 0 mm 1 mps 673 mmHg 40%
    08:00 +11°C° 0 mm 1 mps 674 mmHg 36%
    09:00 +12°C° 0 mm 1 mps 674 mmHg 33%
    10:00 +13°C° 0 mm 1 mps 674 mmHg 30%
    11:00 +14°C° 0 mm 1 mps 675 mmHg 27%
    12:00 +15°C° 0 mm 1 mps 675 mmHg 24%
    13:00 +15°C° 0 mm 1 mps 675 mmHg 25%
    14:00 +15°C° 0 mm 1 mps 675 mmHg 26%
    15:00 +15°C° 0 mm 2 mps 674 mmHg 27%
    16:00 +13°C° 0 mm 2 mps 674 mmHg 32%
    17:00 +12°C° 0 mm 1 mps 674 mmHg 37%
    18:00 +11°C° 0 mm 1 mps 674 mmHg 42%
    19:00 +10°C° 0 mm 1 mps 674 mmHg 43%
    20:00 +10°C° 0 mm 1 mps 675 mmHg 44%
    21:00 +9°C° 0 mm 1 mps 675 mmHg 46%
    22:00 +9°C° 0 mm 1 mps 674 mmHg 46%
    23:00 +8°C° 0 mm 1 mps 674 mmHg 45%

    24 November, Friday

    Time Temperature Precipitation Wind Pressure Humidity
    00:00 +8°C° 0 mm 1 mps 674 mmHg 45%
    01:00 +8°C° 0 mm 1 mps 674 mmHg 46%
    02:00 +8°C° 0 mm 1 mps 674 mmHg 46%
    03:00 +7°C° 0 mm 1 mps 673 mmHg 47%
    04:00 +7°C° 0 mm 1 mps 673 mmHg 47%
    05:00 +7°C° 0 mm 1 mps 674 mmHg 47%
    06:00 +7°C° 0 mm 1 mps 674 mmHg 47%
    07:00 +9°C° 0 mm 1 mps 675 mmHg 43%
    08:00 +11°C° 0 mm 1 mps 675 mmHg 38%
    09:00 +13°C° 0 mm 1 mps 676 mmHg 33%
    10:00 +14°C° 0 mm 1 mps 676 mmHg 30%
    11:00 +15°C° 0 mm 1 mps 676 mmHg 28%
    12:00 +16°C° 0 mm 1 mps 676 mmHg 25%
    13:00 +16°C° 0 mm 1 mps 676 mmHg 26%
    14:00 +16°C° 0 mm 1 mps 676 mmHg 27%
    15:00 +16°C° 0 mm 1 mps 676 mmHg 27%
    16:00 +15°C° 0 mm 1 mps 675 mmHg 31%
    17:00 +13°C° 0 mm 1 mps 675 mmHg 34%
    18:00 +12°C° 0 mm 1 mps 675 mmHg 38%
    19:00 +10°C° 0 mm 2 mps 675 mmHg 37%
    20:00 +10°C° 0 mm 2 mps 675 mmHg 37%
    21:00 +10°C° 0 mm 2 mps 675 mmHg 37%
    22:00 +9°C° 0 mm 2 mps 675 mmHg 38%
    23:00 +9°C° 0 mm 2 mps 675 mmHg 38%

    25 November, Saturday

    Time Temperature Precipitation Wind Pressure Humidity
    00:00 +9°C° 0 mm 2 mps 675 mmHg 39%
    01:00 +8°C° 0 mm 2 mps 675 mmHg 41%
    02:00 +8°C° 0 mm 2 mps 674 mmHg 42%
    03:00 +8°C° 0 mm 2 mps 674 mmHg 44%
    04:00 +8°C° 0 mm 2 mps 674 mmHg 45%
    05:00 +7°C° 0 mm 2 mps 674 mmHg 46%
    06:00 +7°C° 0 mm 2 mps 674 mmHg 47%
    07:00 +9°C° 0 mm 3 mps 675 mmHg 45%
    08:00 +10°C° 0 mm 3 mps 676 mmHg 42%
    09:00 +12°C° 0 mm 3 mps 676 mmHg 40%
    10:00 +13°C° 0 mm 3 mps 677 mmHg 36%
    11:00 +14°C° 0 mm 3 mps 677 mmHg 33%
    12:00 +16°C° 0 mm 3 mps 677 mmHg 30%
    13:00 +16°C° 0 mm 3 mps 676 mmHg 31%
    14:00 +16°C° 0 mm 3 mps 676 mmHg 32%
    15:00 +16°C° 0 mm 3 mps 676 mmHg 33%
    16:00 +15°C° 0 mm 2 mps 676 mmHg 37%
    17:00 +13°C° 0 mm 2 mps 676 mmHg 41%
    18:00 +10°C° 0 mm 2 mps 675 mmHg 46%
    19:00 +10°C° 0 mm 2 mps 676 mmHg 48%
    20:00 +9°C° 0 mm 2 mps 676 mmHg 50%
    21:00 +9°C° 0 mm 2 mps 676 mmHg 52%
    22:00 +9°C° 0 mm 2 mps 676 mmHg 53%
    23:00 +8°C° 0 mm 2 mps 676 mmHg 54%

    26 November, Sunday

    Time Temperature Precipitation Wind Pressure Humidity
    00:00 +8°C° 0 mm 3 mps 675 mmHg 55%
    01:00 +8°C° 0 mm 3 mps 675 mmHg 56%
    02:00 +8°C° 0 mm 3 mps 675 mmHg 57%
    03:00 +8°C° 0 mm 3 mps 675 mmHg 59%
    04:00 +7°C° 0 mm 3 mps 675 mmHg 60%
    05:00 +7°C° 0 mm 3 mps 675 mmHg 61%
    06:00 +7°C° 0 mm 3 mps 675 mmHg 62%
    07:00 +9°C° 0 mm 3 mps 676 mmHg 59%
    08:00 +10°C° 0 mm 3 mps 676 mmHg 56%
    09:00 +11°C° 0 mm 3 mps 677 mmHg 53%
    10:00 +12°C° 0 mm 3 mps 677 mmHg 50%
    11:00 +13°C° 0 mm 3 mps 677 mmHg 46%
    12:00 +14°C° 0 mm 3 mps 677 mmHg 43%
    13:00 +14°C° 0 mm 3 mps 677 mmHg 43%
    14:00 +14°C° 0 mm 3 mps 677 mmHg 43%
    15:00 +16°C° 0 mm 2 mps 676 mmHg 42%
    16:00 +14°C° 0 mm 2 mps 676 mmHg 48%
    17:00 +12°C° 0 mm 2 mps 676 mmHg 54%
    18:00 +11°C° 0 mm 1 mps 676 mmHg 60%
    19:00 +10°C° 0 mm 1 mps 676 mmHg 62%
    20:00 +10°C° 0 mm 1 mps 676 mmHg 63%
    21:00 +9°C° 0 mm 1 mps 676 mmHg 65%
    22:00 +9°C° 0 mm 1 mps 676 mmHg 65%
    23:00 +8°C° 0 mm 1 mps 676 mmHg 66%
    Show more